Theta_e
301 300 300 300 301 301 299 298 299 299 299 301 303 302 303 303 301 301 302 304 305 306 309 310 310 312 312 313 318 316 322 324 322 328 327 324 326 324 324 324 328 331 332 330 328 330 329 328 327 330 331 327 332 332
301 300 300 300 300 301 300 299 299 299 299 301 303 302 302 303 301 302 302 303 304 304 307 308 308 308 309 310 310 311 320 321 322 324 322 322 323 321 325 326 322 326 327 329 328 329 327 326 328 327 326 331 330 330
300 301 300 300 300 299 301 299 299 300 299 300 303 303 302 303 301 301 302 301 303 305 307 307 306 307 306 307 307 312 317 315 319 321 323 325 329 323 326 326 325 323 322 330 331 328 328 327 326 327 329 329 328 327
300 300 301 300 300 299 300 298 299 300 300 300 302 302 303 302 301 301 301 301 302 305 307 307 308 309 311 311 311 312 314 313 317 319 323 325 326 320 324 324 325 323 324 328 328 327 326 326 326 326 325 325 325 324
301 300 301 301 300 299 299 299 299 299 300 299 301 302 303 302 301 301 301 301 302 304 308 308 307 309 311 312 313 313 314 313 318 322 323 323 319 321 318 322 324 320 327 330 330 328 328 327 324 324 324 323 323 323
301 301 301 300 300 300 300 301 300 299 299 299 301 302 303 302 301 302 304 302 304 305 305 308 307 311 312 313 313 313 313 315 317 320 319 318 316 320 325 326 322 321 321 323 325 324 324 324 324 323 323 323 323 323
301 301 300 301 301 301 301 301 300 299 299 300 301 302 303 302 301 302 303 304 305 306 306 310 312 312 311 312 313 313 314 316 316 316 318 319 319 320 323 326 323 322 323 321 322 322 325 324 323 322 322 320 319 320
301 300 301 301 300 301 300 300 299 299 300 301 302 303 302 301 301 305 305 305 305 305 306 311 313 314 313 313 314 313 315 315 315 316 316 318 318 319 325 322 322 323 323 323 323 322 324 322 321 320 320 321 321 322
301 301 301 300 300 300 300 299 299 300 301 302 303 302 301 303 305 306 306 306 306 306 310 310 314 319 313 313 314 314 314 316 314 318 318 317 318 322 321 320 321 324 325 325 323 323 323 322 321 321 321 322 322 322
300 300 300 300 300 300 299 299 300 301 303 303 301 302 304 305 306 306 308 306 306 307 309 310 307 314 313 315 315 316 314 316 316 317 315 318 319 317 316 316 318 321 321 322 323 323 323 323 323 323 322 322 321 320
300 300 299 299 299 299 299 301 302 303 302 301 302 305 306 307 307 308 308 308 307 309 307 308 308 310 310 318 318 316 317 316 319 318 317 317 318 319 317 317 316 317 320 323 324 322 323 321 321 321 321 321 320 318
300 299 299 299 299 300 302 302 302 301 302 303 305 306 307 307 308 309 309 308 309 309 309 310 311 309 310 318 320 320 322 319 321 315 319 322 322 315 318 320 321 320 321 322 321 320 320 321 321 321 320 317 314 313
299 299 299 300 302 303 303 302 301 303 303 304 305 305 305 307 308 310 311 311 312 311 312 314 315 310 311 317 319 321 321 321 319 324 323 324 320 320 319 319 321 321 319 320 321 321 322 322 319 314 311 310 310 307
301 302 302 302 303 303 301 302 302 302 303 304 305 304 307 308 309 309 312 312 311 312 313 313 313 312 315 320 320 321 319 322 323 323 323 322 322 322 319 319 319 320 320 320 320 322 320 314 311 309 308 307 305 304
301 302 303 302 303 302 301 302 302 303 303 304 303 305 307 308 309 310 309 311 310 311 312 314 313 314 319 320 319 319 321 321 322 323 323 321 321 321 320 321 322 322 322 321 320 318 313 311 310 308 306 305 304 303
302 302 302 302 302 301 301 301 301 302 303 303 304 305 305 307 308 308 309 310 309 312 312 313 316 318 317 319 319 320 320 320 322 322 321 319 320 320 322 322 322 321 319 319 318 313 311 311 309 307 307 306 306 305
302 302 302 302 301 301 301 301 302 303 303 305 306 305 305 305 307 308 308 309 309 313 316 316 317 317 316 319 319 318 321 320 319 319 319 319 319 321 322 321 320 319 319 318 314 312 311 310 308 308 308 307 307 306
301 301 301 301 301 301 301 303 303 304 305 305 305 306 305 306 307 308 307 310 311 313 314 316 315 319 318 318 319 319 318 318 320 320 320 319 319 320 321 320 320 319 318 316 314 313 311 310 309 309 309 308 308 307
301 301 301 301 303 304 304 304 304 304 305 305 306 306 306 307 307 308 309 310 311 312 312 315 317 319 320 319 319 316 318 318 320 320 320 320 320 320 320 320 320 319 318 317 315 314 312 311 311 310 311 311 310 310
302 301 301 302 302 305 305 306 306 306 306 306 305 306 306 307 309 310 311 312 312 312 314 316 318 317 318 317 317 317 318 319 319 318 319 320 320 320 319 319 319 319 318 318 317 315 314 313 313 313 313 310 310 310
302 302 301 302 302 303 304 305 304 304 303 303 305 306 308 310 311 313 314 315 315 315 315 314 315 315 314 314 317 318 319 317 317 317 318 317 315 313 313 314 317 317 317 316 314 314 314 314 310 310 310 310 311 310
304 303 303 302 301 301 301 302 302 302 301 303 305 307 308 311 313 313 312 314 314 311 314 315 315 314 315 317 316 315 315 314 314 314 315 314 313 314 315 315 315 316 315 314 312 312 312 312 310 310 309 309 309 308
304 304 304 303 303 303 306 305 304 306 308 312 312 314 314 314 314 315 316 314 313 315 315 314 314 315 316 315 315 315 314 314 314 314 314 313 313 313 314 313 313 312 311 311 311 311 311 310 309 307 307 309 308 306
306 306 306 306 305 309 309 312 311 312 314 314 314 315 315 314 314 315 317 316 315 316 315 316 316 315 315 313 312 312 312 312 312 312 312 312 312 312 311 312 312 311 310 310 311 310 311 309 307 306 307 309 308 306
308 310 309 311 310 312 316 315 314 313 313 314 313 313 314 313 315 315 316 314 314 313 314 314 314 314 314 313 314 313 313 313 313 312 312 312 312 312 312 311 311 310 310 309 308 308 308 307 306 306 305 305 306 306
307 312 311 315 316 316 317 318 318 317 317 317 317 315 313 314 315 314 314 313 312 311 311 311 311 312 312 313 313 313 312 313 314 313 313 313 313 311 312 312 312 310 309 308 308 308 307 306 306 306 306 305 305 305
315 316 313 312 312 313 314 313 313 315 317 317 317 317 315 315 315 314 313 313 312 311 311 310 310 310 310 311 311 311 312 311 311 312 311 311 311 311 311 310 309 308 308 308 307 307 307 306 306 306 306 306 305 305
314 313 315 313 314 313 313 313 314 314 314 312 315 315 315 314 315 314 312 312 312 312 312 312 311 311 311 311 310 310 310 310 310 309 310 310 309 309 309 308 308 308 307 307 306 306 306 305 306 305 305 305 305 305
314 314 313 314 314 314 313 313 313 313 313 313 314 314 314 312 312 313 312 312 312 312 311 311 310 310 310 310 309 309 309 309 310 309 309 309 309 308 308 308 308 308 308 308 307 307 307 306 306 306 306 306 306 305
315 314 315 314 314 315 313 313 313 312 312 312 312 312 311 311 311 312 312 312 311 311 311 311 310 310 310 310 310 308 308 308 308 308 307 307 307 307 306 306 307 308 307 308 308 307 307 307 306 306 306 306 306 306
315 315 315 314 315 314 313 312 312 313 313 312 312 312 312 312 312 311 312 311 311 311 311 310 310 310 310 310 310 310 309 308 308 308 308 308 308 307 305 303 302 304 307 308 308 307 307 307 307 307 307 307 306 306
316 315 316 316 315 314 314 314 314 314 314 314 314 313 312 312 312 311 312 311 312 311 310 311 311 311 310 311 310 310 309 309 308 308 308 308 308 308 306 303 303 303 304 306 308 307 307 307 307 306 306 306 306 306
316 317 317 317 317 317 315 316 316 315 315 315 315 314 311 313 313 312 312 312 312 312 312 311 310 311 311 311 311 311 310 309 309 309 309 309 309 309 308 306 304 305 307 307 307 307 307 307 307 307 307 307 306 306
Wind_Speed
19 21 16 11 9 10 9 8 8 7 6 4 5 4 3 6 7 6 4 3 1 4 12 6 3 1 3 2 2 6 2 2 3 3 3 3 3 3 4 3 3 5 5 3 3 3 6 2 7 8 1 2 11 12
13 12 24 18 12 8 10 9 8 6 5 4 5 4 4 5 6 6 2 6 7 8 8 13 16 13 12 9 4 4 2 0 3 3 2 4 3 3 4 4 1 3 0 4 2 2 2 2 3 4 5 10 13 14
11 11 13 13 9 9 11 9 8 5 5 5 4 4 4 5 6 7 4 4 6 7 13 12 6 6 10 11 8 3 1 3 2 1 2 2 4 3 4 4 5 2 2 3 6 3 3 3 3 7 10 15 14 14
11 9 9 11 10 10 10 9 7 6 6 5 4 3 4 5 7 7 6 5 5 4 4 4 3 3 4 5 8 10 2 7 3 2 2 2 3 2 3 4 2 2 8 8 3 3 5 3 8 11 15 15 13 11
8 7 6 8 13 8 8 8 6 6 5 5 5 4 3 5 7 8 7 7 6 2 4 9 9 4 3 5 6 6 5 4 3 1 3 3 3 3 2 2 4 8 7 7 5 15 4 12 13 13 12 11 9 6
6 7 4 4 7 9 9 7 6 6 5 4 5 5 3 5 7 6 1 2 4 3 3 3 6 4 0 4 6 6 4 2 2 2 4 3 3 1 3 3 3 6 10 8 6 19 10 16 14 12 12 10 7 5
5 6 5 5 5 5 6 6 5 5 4 4 4 3 3 5 5 2 0 2 6 6 3 5 4 5 6 9 7 6 5 4 4 2 3 2 3 3 2 2 11 9 8 9 19 19 11 14 10 13 11 9 6 4
4 4 4 4 5 5 4 4 4 3 3 3 2 2 2 5 2 4 3 2 4 3 3 3 2 1 4 2 4 4 3 4 7 3 3 3 2 2 2 2 12 12 12 15 17 8 12 17 17 14 11 10 7 4
2 2 3 4 2 3 3 2 2 2 2 2 3 1 2 3 2 3 3 3 2 2 3 2 3 2 5 3 5 4 4 2 2 1 2 1 1 3 2 5 13 14 9 15 13 10 15 16 15 13 10 8 6 5
2 2 2 4 3 3 2 3 3 3 4 4 3 2 2 2 4 5 1 1 2 2 1 2 2 1 2 2 3 3 3 2 2 2 1 1 2 5 3 6 12 14 9 12 16 13 15 15 14 14 11 8 5 3
5 5 4 4 4 3 5 4 6 6 4 2 1 1 3 3 1 1 1 1 1 1 1 2 2 3 5 1 2 1 3 2 4 3 3 2 3 4 8 8 10 11 13 13 10 14 13 15 16 13 10 7 4 3
7 6 5 5 6 7 7 9 8 3 2 2 3 5 3 1 1 1 1 1 1 2 1 2 3 2 2 2 1 2 2 2 3 5 3 2 2 3 11 12 14 18 15 15 15 19 18 15 12 10 8 5 5 5
7 7 8 8 8 11 12 9 5 4 4 5 4 2 3 1 2 1 1 2 1 1 2 6 2 2 2 0 2 1 2 2 7 3 2 2 2 5 14 16 18 19 16 18 20 19 17 15 13 10 9 8 7 9
11 10 11 9 9 13 9 7 5 4 3 2 3 3 2 1 2 2 3 3 4 4 9 8 3 2 2 0 2 2 2 3 3 2 2 0 4 11 16 18 21 20 20 21 20 19 17 17 15 12 9 9 10 11
10 9 8 8 8 6 5 2 3 4 2 2 2 2 2 5 2 3 3 4 6 6 9 3 1 1 1 1 2 2 3 2 1 1 1 1 9 14 18 20 23 23 23 22 21 21 20 17 14 12 12 13 12 10
7 7 8 6 4 4 3 1 3 3 2 2 1 1 3 3 3 5 4 5 6 7 5 0 0 2 1 0 1 1 1 1 1 1 2 7 13 18 22 24 24 22 21 22 21 20 19 17 14 16 15 12 10 9
2 5 4 4 4 4 4 4 4 3 2 1 0 3 4 5 5 3 7 5 6 5 2 2 2 2 2 2 2 1 0 2 3 4 7 10 14 20 22 22 19 19 19 19 20 20 19 17 17 16 13 10 7 5
5 6 6 4 4 4 3 3 3 1 2 2 3 2 3 6 8 7 5 2 4 4 3 4 3 2 1 2 0 1 1 3 5 7 10 12 12 15 17 18 19 18 18 18 20 19 17 16 15 13 10 7 5 3
5 5 4 4 6 6 4 3 3 2 3 4 6 7 7 8 10 8 7 5 3 3 5 1 2 1 2 1 2 2 7 7 7 12 12 11 11 11 11 12 16 17 17 18 18 14 14 12 10 9 6 4 3 2
4 4 2 3 8 5 4 3 4 3 3 4 8 6 8 8 8 8 6 5 3 2 2 1 1 2 1 4 3 4 8 11 12 15 14 14 14 13 13 12 10 11 14 15 14 13 12 10 7 6 7 6 4 4
4 3 6 7 6 2 3 4 3 3 6 5 8 8 4 5 3 2 2 8 2 3 3 4 7 6 6 3 7 12 14 12 11 14 17 20 17 13 14 13 11 14 15 15 12 10 9 7 6 6 8 9 7 8
6 8 10 9 2 2 3 4 4 6 3 4 4 3 4 3 2 4 3 4 4 9 13 10 8 7 14 19 18 17 14 15 16 13 13 15 15 12 10 12 11 11 10 8 5 4 6 9 8 8 9 12 10 10
9 7 4 3 2 2 2 3 3 3 3 4 2 1 5 7 6 6 5 6 3 4 12 23 31 26 24 18 13 13 13 11 9 14 11 9 6 8 13 11 7 8 5 6 6 7 7 8 7 7 7 8 11 12
7 5 3 4 3 4 4 3 4 4 4 6 7 14 8 8 13 8 7 8 9 8 10 14 11 11 10 9 9 11 11 10 10 9 7 7 8 11 9 7 4 3 3 3 4 5 6 6 7 6 6 9 11 12
3 2 1 2 2 3 1 4 7 7 10 8 13 7 5 8 8 8 8 10 14 14 11 11 12 10 10 11 11 9 7 5 3 3 5 5 7 8 6 2 3 5 2 3 4 5 6 5 3 4 4 7 9 12
2 2 1 5 1 2 3 0 1 3 2 2 4 3 5 5 5 5 7 13 13 15 16 15 13 12 12 10 6 4 4 3 3 5 1 5 2 6 4 6 8 9 7 7 7 8 9 9 8 7 6 5 6 7
5 6 6 8 4 1 2 4 3 4 4 3 2 3 2 4 3 2 4 7 9 10 11 12 11 10 8 8 8 7 4 2 3 5 3 1 1 3 6 1 0 3 6 7 8 7 7 9 11 12 12 11 11 10
4 9 7 12 16 13 5 4 5 5 4 4 2 4 3 3 3 4 4 5 6 4 6 9 8 8 8 8 9 9 7 4 2 2 4 3 2 1 2 2 1 2 1 2 3 2 3 5 7 6 6 7 9 11
9 16 13 17 10 8 9 8 8 8 14 11 9 5 4 4 8 8 10 12 11 10 8 9 10 8 10 12 10 9 7 5 3 2 3 4 5 6 8 9 9 8 5 7 6 5 2 3 2 1 1 2 3 6
7 10 8 7 6 5 6 9 11 14 14 14 14 14 15 15 15 15 13 10 8 6 7 6 7 6 6 10 12 10 8 8 7 5 5 5 7 10 12 13 14 16 16 11 10 10 12 11 10 10 9 10 9 9
2 3 3 4 3 4 6 10 12 13 15 13 11 9 7 9 12 12 11 12 11 9 8 7 7 6 8 7 8 9 7 6 5 5 6 7 10 16 20 16 14 15 15 16 13 12 13 11 9 9 12 14 12 11
3 2 0 2 3 5 5 3 3 3 3 5 5 7 7 5 5 8 8 9 11 13 15 14 10 8 7 7 8 9 7 6 7 7 7 9 11 14 18 14 5 2 7 11 12 14 14 14 12 10 10 11 12 12
2 3 3 2 2 3 2 3 2 1 1 2 3 3 6 4 4 9 6 6 6 7 9 9 8 9 9 9 9 10 10 9 9 9 9 10 10 11 10 11 7 2 3 4 5 7 10 13 15 14 14 15 14 15
Wind_Direction
274 235 237 243 264 281 291 305 318 311 303 299 314 294 294 317 335 332 267 232 254 267 281 269 256 313 342 33 353 357 225 168 163 147 156 137 137 139 113 98 159 155 143 143 122 160 228 92 126 195 161 103 166 163
271 261 238 238 243 268 286 300 317 305 298 286 310 302 297 310 329 336 292 244 277 277 269 284 278 265 264 272 292 311 329 11 12 119 134 131 135 148 144 137 84 167 45 152 225 124 43 279 283 263 187 155 146 149
253 257 249 232 239 251 272 292 312 305 297 275 289 288 287 307 324 334 303 294 288 290 297 283 276 247 239 250 246 228 31 355 27 65 122 114 122 173 139 135 122 109 162 100 164 140 107 83 105 125 133 131 133 135
236 255 239 238 226 250 263 284 299 290 290 259 269 283 279 312 323 326 317 274 271 291 292 284 307 260 239 220 206 212 215 352 349 69 77 86 108 229 122 112 121 79 152 131 91 147 120 116 131 125 128 127 128 132
220 224 242 229 209 232 265 270 285 287 289 261 267 273 275 313 323 320 302 250 235 254 303 293 322 104 222 228 211 207 227 319 329 102 61 71 91 125 63 133 138 184 155 180 175 169 138 157 153 143 138 137 140 147
204 205 228 216 235 233 248 263 273 288 284 251 253 265 269 305 331 335 0 195 184 16 296 302 343 38 114 179 170 159 136 15 26 63 85 111 127 197 136 138 139 161 158 131 145 154 136 150 157 159 154 148 147 144
212 210 212 238 219 238 259 247 266 276 269 244 242 236 255 319 335 328 303 305 214 340 308 299 336 12 98 123 121 117 92 66 48 78 67 67 77 46 85 145 168 158 144 128 145 148 128 155 156 157 158 151 151 143
156 186 219 219 213 238 251 229 258 256 232 223 213 194 279 312 35 90 18 230 190 311 308 307 299 47 32 101 97 105 85 61 32 39 41 44 84 39 149 178 150 149 140 144 153 159 166 165 155 148 145 138 131 120
185 183 212 200 240 201 202 240 215 197 172 154 154 250 352 76 92 23 80 123 187 279 318 332 333 81 9 71 96 67 55 74 26 47 70 307 68 209 162 204 179 167 158 158 144 134 147 148 144 144 143 139 139 128
168 188 183 165 163 162 171 160 153 140 133 128 102 54 103 126 166 143 10 124 212 271 289 281 294 315 21 44 81 111 52 84 155 70 32 302 271 268 245 220 205 182 178 169 145 135 144 139 144 141 145 147 142 139
103 120 133 140 144 142 137 132 126 119 110 67 31 44 136 159 77 1 313 312 325 238 231 275 277 323 16 33 109 63 130 149 176 137 208 189 251 219 201 192 176 183 176 170 183 170 157 156 148 146 143 146 156 159
96 106 114 121 124 124 120 118 113 77 45 65 53 66 122 305 299 241 352 246 266 11 310 303 346 273 337 11 182 114 110 183 138 141 193 223 243 199 165 155 155 162 157 158 154 150 146 142 142 144 142 146 142 134
88 97 106 112 117 122 126 123 104 79 58 101 23 13 9 336 56 324 101 139 96 119 20 348 341 331 313 335 116 155 140 94 130 193 222 240 188 179 167 157 147 151 153 154 149 148 146 142 138 138 135 130 131 126
80 85 88 98 125 133 137 124 95 83 39 37 15 357 344 36 74 24 30 4 347 349 337 320 275 347 342 345 353 144 77 178 170 213 239 158 185 159 158 152 148 146 148 148 149 149 149 146 137 128 122 121 126 128
84 88 107 96 141 143 152 112 37 35 46 60 8 47 12 335 347 8 2 359 353 339 339 312 249 22 59 108 18 113 170 197 233 282 331 186 159 160 159 154 150 148 148 149 152 153 149 139 128 123 122 125 128 125
80 105 100 91 90 109 158 330 354 353 34 42 275 297 306 306 354 3 8 337 350 335 330 30 353 172 61 337 194 198 208 212 86 296 323 149 152 155 157 156 154 155 158 156 155 148 139 132 125 125 124 124 120 112
64 135 117 77 69 57 25 6 353 359 353 338 276 278 270 281 278 283 323 326 342 336 11 305 190 87 116 170 207 198 259 20 323 285 163 155 155 162 162 163 163 163 163 160 153 150 147 144 140 133 127 126 125 110
102 109 105 90 55 17 341 325 334 321 270 264 277 256 275 276 284 293 308 13 10 4 343 14 307 219 154 173 176 135 130 151 121 124 135 138 147 160 171 174 173 169 163 161 164 161 159 157 149 150 153 150 142 123
86 88 84 68 14 350 337 319 335 303 266 289 286 296 298 291 292 292 289 294 284 282 308 286 254 186 108 345 324 161 164 150 136 132 130 138 144 158 172 176 169 166 170 168 171 172 179 172 174 180 177 200 213 234
39 31 27 335 346 341 322 304 328 302 301 318 303 310 305 288 298 303 289 282 198 189 225 250 324 48 59 6 328 173 166 152 135 129 125 127 127 130 137 145 151 155 160 175 173 180 185 187 203 219 206 199 224 238
12 328 291 291 322 314 292 321 312 316 307 308 307 316 293 303 292 28 61 142 152 16 356 287 266 259 256 339 106 142 140 132 136 145 144 143 130 135 141 146 167 166 167 170 178 187 195 200 209 221 226 243 255 220
301 310 309 317 286 269 248 260 262 284 254 256 281 247 299 345 28 121 187 84 57 84 22 356 139 148 135 118 112 114 113 106 109 109 114 122 140 169 155 155 160 166 179 188 206 217 221 221 235 254 260 255 247 208
317 339 345 324 305 296 1 346 262 265 270 324 313 71 73 66 66 81 80 77 125 110 52 68 76 100 116 114 105 115 135 142 150 169 174 190 171 152 160 150 156 166 190 233 242 221 230 229 246 273 273 227 205 202
330 339 335 339 343 332 341 326 318 313 3 35 56 60 45 43 46 51 65 69 59 56 62 81 123 122 120 117 109 118 126 124 115 115 136 158 166 151 156 168 177 210 259 263 249 246 235 245 278 273 248 222 220 219
332 343 9 324 313 306 358 77 61 70 69 58 59 58 28 61 65 60 53 41 52 50 65 88 99 94 89 95 97 99 108 119 113 142 139 149 166 182 185 170 250 222 222 231 226 247 245 255 245 227 237 244 245 242
323 356 314 342 8 305 336 329 68 68 10 48 53 8 29 38 36 53 15 22 47 52 56 66 74 77 75 89 88 93 57 56 147 158 244 190 276 214 219 271 258 239 242 236 235 246 250 248 247 244 242 220 210 229
20 11 11 6 328 289 52 38 25 35 41 52 52 32 44 78 44 335 80 35 39 55 57 56 53 56 63 60 53 40 37 89 99 138 103 142 98 257 275 311 359 283 279 267 258 255 261 265 261 256 249 247 243 237
358 17 14 22 44 48 55 38 25 16 5 358 39 36 52 55 63 39 51 56 59 114 91 61 49 51 46 41 30 25 17 8 63 140 118 20 324 289 228 198 357 353 308 254 257 234 301 279 259 264 266 267 268 258
31 50 69 47 46 42 38 46 54 51 67 70 74 67 52 50 59 71 72 58 61 71 57 42 39 34 42 30 22 23 28 24 308 299 316 335 315 265 242 239 243 247 260 259 257 249 296 335 335 315 321 271 261 270
29 70 64 54 51 51 38 82 79 76 74 84 85 83 79 68 69 58 43 37 34 49 48 39 37 44 53 33 28 26 29 37 40 47 44 29 5 345 323 295 274 256 244 253 264 271 260 261 254 255 265 279 293 293
61 81 83 71 78 75 80 96 89 89 87 83 79 72 78 74 64 37 35 37 34 15 356 352 360 11 359 4 13 12 11 2 347 342 341 336 334 337 336 317 278 251 244 242 249 256 269 272 263 277 275 266 269 274
15 28 164 128 150 168 153 129 67 71 52 72 66 68 60 50 37 30 44 52 40 35 33 32 39 29 18 9 356 351 345 328 331 330 321 318 321 332 347 357 6 277 249 249 249 255 257 264 269 260 268 271 274 277
347 21 51 100 117 161 115 125 136 200 84 74 44 54 55 37 31 13 6 4 1 9 12 6 19 29 13 359 346 334 330 310 303 303 310 310 316 321 332 351 358 315 266 261 263 265 269 268 272 274 279 285 283 277